Location: C�mpuri de-Sus
(45.9500°N, 22.5500°E)
Time: 13:38:10
(UTC+00:00)

Cosmos 2263 Rocket - Pass Details

Date: 24 October 2021
Orbit: 825 x 847 km, 71.0° (Epoch: 06 December)

Event Time Altitude Azimuth Distance (km) Brightness Sun altitude
Rises 16:49:34 0° 326° (NW) 3,372 5.8 -14.8°
Reaches altitude 10° 16:52:11 10° 318° (NW) 2,434 5.2 -15.2°
Maximum altitude 16:57:10 35° 254° (WSW) 1,306 3.9 -16.1°
Drops below altitude 10° 17:02:09 10° 190° (S) 2,422 4.7 -16.9°
Sets 17:04:45 0° 182° (S) 3,353 5.3 -17.4°
